OK1VCF-5 Weather Reports


time (UTC)temp
C
wind
direction
speed
KPH
gust
KPH
rain 1hr
cm
rain 24hr
cm
rain mn
cm
humidity
%
barometer
mb
20260502162620 23 0 0.0 0.0 0.00 0.00 0.00 22 1022.7
20260502161119 24 0 0.0 0.0 0.00 0.00 0.00 18 1022.8
20260502151259 25 0 0.0 0.0 0.00 0.00 0.00 20 1023.4
20260502151114 25 0 0.0 0.0 0.00 0.00 0.00 20 1023.4
20260502122607 26 0 0.0 0.0 0.00 0.00 0.00 21 1025.6
20260502121108 25 0 0.0 0.0 0.00 0.00 0.00 22 1025.6
20260502115800 25 0 0.0 0.0 0.00 0.00 0.00 22 1025.9
20260502115604 25 0 0.0 0.0 0.00 0.00 0.00 22 1025.9
20260502114105 26 0 0.0 0.0 0.00 0.00 0.00 25 1026.1
20260502112602 25 0 0.0 0.0 0.00 0.00 0.00 25 1026.4
20260502111104 25 0 0.0 0.0 0.00 0.00 0.00 26 1026.5
20260502105602 25 0 0.0 0.0 0.00 0.00 0.00 26 1026.7
20260502104103 25 0 0.0 0.0 0.00 0.00 0.00 26 1027.0
20260502102602 25 0 0.0 0.0 0.00 0.00 0.00 26 1027.1
20260502101105 24 0 0.0 0.0 0.00 0.00 0.00 26 1027.3
20260502091059 23 0 0.0 0.0 0.00 0.00 0.00 29 1028.0
20260502071051 15 0 0.0 0.0 0.00 0.00 0.00 53 1029.6
20260502065550 14 0 0.0 0.0 0.00 0.00 0.00 56 1029.8
20260502064050 12 0 0.0 0.0 0.00 0.00 0.00 61 1030.0
20260502062549 12 0 0.0 0.0 0.00 0.00 0.00 64 1030.1
20260502055550 8 0 0.0 0.0 0.00 0.00 0.00 72 1030.3
20260502051044 5 0 0.0 0.0 0.00 0.00 0.00 82 1030.6
20260502045542 4 0 0.0 0.0 0.00 0.00 0.00 86 1030.6
20260502044043 3 0 0.0 0.0 0.00 0.00 0.00 88 1030.6
20260502042542 3 0 0.0 0.0 0.00 0.00 0.00 89 1030.6
20260502041041 2 0 0.0 0.0 0.00 0.00 0.00 89 1030.4
20260502035541 2 0 0.0 0.0 0.00 0.00 0.00 90 1030.4
20260502034042 2 0 0.0 0.0 0.00 0.00 0.00 90 1030.4
20260502032542 2 0 0.0 0.0 0.00 0.00 0.00 90 1030.6
20260502031040 2 0 0.0 0.0 0.00 0.00 0.00 89 1030.6
20260502025540 2 0 0.0 0.0 0.00 0.00 0.00 89 1030.6
20260502022537 3 0 0.0 0.0 0.00 0.00 0.00 86 1030.6
20260502021036 3 0 0.0 0.0 0.00 0.00 0.00 88 1030.6
20260502015533 3 0 0.0 0.0 0.00 0.00 0.00 87 1030.6
20260502014032 3 0 0.0 0.0 0.00 0.00 0.00 86 1030.5
20260502012533 3 0 0.0 0.0 0.00 0.00 0.00 86 1030.6
20260502011033 3 0 0.0 0.0 0.00 0.00 0.00 86 1030.8
20260502005531 4 0 0.0 0.0 0.00 0.00 0.00 86 1030.9
20260502004030 4 0 0.0 0.0 0.00 0.00 0.00 86 1031.0
20260502002530 4 0 0.0 0.0 0.00 0.00 0.00 86 1031.0
20260502001027 4 0 0.0 0.0 0.00 0.00 0.00 84 1031.0
20260501235535 5 0 0.0 0.0 0.00 0.00 0.00 84 1031.1
20260501235527 5 0 0.0 0.0 0.00 0.00 0.00 84 1031.1
20260501232527 5 0 0.0 0.0 0.00 0.00 0.00 82 1031.0
20260501231026 5 0 0.0 0.0 0.00 0.00 0.00 81 1031.0
20260501225525 6 0 0.0 0.0 0.00 0.00 0.00 80 1031.0
20260501224024 6 0 0.0 0.0 0.00 0.00 0.00 80 1031.2
20260501222522 6 0 0.0 0.0 0.00 0.00 0.00 80 1031.0
20260501221023 6 0 0.0 0.0 0.00 0.00 0.00 80 1031.2
20260501215524 6 0 0.0 0.0 0.00 0.00 0.00 79 1031.1
20260501214023 6 0 0.0 0.0 0.00 0.00 0.00 78 1031.0
20260501212524 6 0 0.0 0.0 0.00 0.00 0.00 78 1031.0
20260501202520 8 0 0.0 0.0 0.00 0.00 0.00 72 1031.0
20260501201015 8 0 0.0 0.0 0.00 0.00 0.00 69 1030.8
20260501195515 10 0 0.0 0.0 0.00 0.00 0.00 67 1030.8
20260501192514 11 0 0.0 0.0 0.00 0.00 0.00 60 1030.6
20260501191013 11 0 0.0 0.0 0.00 0.00 0.00 57 1030.5
20260501184012 12 0 0.0 0.0 0.00 0.00 0.00 54 1030.2
20260501182512 13 0 0.0 0.0 0.00 0.00 0.00 50 1030.0
20260501181009 14 0 0.0 0.0 0.00 0.00 0.00 48 1029.8
20260501175514 15 0 0.0 0.0 0.00 0.00 0.00 46 1029.7
20260501174009 16 0 0.0 0.0 0.00 0.00 0.00 48 1029.6
20260501171007 18 0 0.0 0.0 0.00 0.00 0.00 40 1029.5